Location: San Antonio
(29.4240°N, 98.4930°W)
Time: 07:12:36
(UTC-05:00)

Altair - All Passes

Search period start: 19 July 2024 00:00
Search period end: 29 July 2024 00:00
Orbit: 1502 x 1682 km, 47.2° (Epoch: 18 July)

Date Brightness Start Highest point End Pass type
(mag) Time Alt. Az. Time Alt. Az. Time Alt. Az.
19 Jul - 01:18:24 10° NW 01:27:07 46° NNE 01:35:59 10° E visible
19 Jul - 03:23:01 10° WNW 03:32:01 60° SW 03:41:17 10° SSE visible
19 Jul - 05:33:15 10° WSW 05:35:36 11° WSW 05:37:59 10° SW visible
19 Jul - 16:31:40 10° S 16:38:13 21° SE 16:44:36 10° E daylight
19 Jul - 18:32:31 10° SW 18:42:06 85° SE 18:51:22 10° NE daylight
19 Jul - 20:39:09 10° W 20:47:33 36° NNW 20:55:51 10° NE daylight
19 Jul - 22:47:35 10° NW 22:54:50 25° N 23:02:05 10° NE visible
20 Jul - 00:53:13 10° NW 01:01:50 43° NNE 01:10:32 10° E visible
20 Jul - 02:57:46 10° NW 03:06:51 66° SW 03:16:11 10° SE visible
20 Jul - 05:06:36 10° W 05:10:29 13° WSW 05:14:27 10° SSW night (unlit)
20 Jul - 16:07:09 10° SSE 16:13:05 18° SE 16:18:53 10° E daylight
20 Jul - 18:07:19 10° SW 18:16:54 79° SE 18:26:10 10° NE daylight
20 Jul - 20:13:39 10° W 20:22:13 38° NNW 20:30:39 10° NE daylight
20 Jul - 22:22:09 10° NW 22:29:25 25° N 22:36:39 10° NE visible
21 Jul - 00:28:01 10° NW 00:36:31 40° NNE 00:45:04 10° E visible
21 Jul - 02:32:33 10° NW 02:41:41 72° SW 02:51:04 10° SE visible
21 Jul - 04:40:30 10° W 04:45:23 15° SW 04:50:21 10° SSW visible
21 Jul - 15:42:48 10° SSE 15:47:58 16° SE 15:53:02 10° E daylight
21 Jul - 17:42:09 10° SW 17:51:43 72° SE 18:00:58 10° NE daylight
21 Jul - 19:48:10 10° W 19:56:54 41° NNW 20:05:27 10° NE daylight
21 Jul - 21:56:43 10° NW 22:04:00 25° N 22:11:14 10° NE visible
22 Jul - 00:02:49 10° NW 00:11:12 38° NNE 00:19:37 10° E visible
22 Jul - 02:07:20 10° NW 02:16:31 79° SW 02:25:54 10° SE visible
22 Jul - 04:14:37 10° W 04:20:16 18° SW 04:26:01 10° SSW visible
22 Jul - 15:18:40 10° SSE 15:22:51 13° ESE 15:26:57 10° E daylight
22 Jul - 17:17:00 10° SW 17:26:32 66° SE 17:35:44 10° NE daylight
22 Jul - 19:22:42 10° W 19:31:35 43° NNW 19:40:16 10° NE daylight
22 Jul - 21:31:16 10° NW 21:38:35 25° N 21:45:50 10° NE visible
22 Jul - 23:37:38 10° NW 23:45:53 36° NNE 23:54:09 10° E visible
23 Jul - 01:42:07 10° NW 01:51:20 85° SW 02:00:43 10° SE visible
23 Jul - 03:48:54 10° W 03:55:09 20° SW 04:01:32 10° S visible
23 Jul - 14:55:02 10° SE 14:57:44 11° ESE 15:00:23 10° ESE daylight
23 Jul - 16:51:53 10° SSW 17:01:22 60° SE 17:10:29 10° ENE daylight
23 Jul - 18:57:15 10° WSW 19:06:17 46° NNW 19:15:06 10° NE daylight
23 Jul - 21:05:47 10° WNW 21:13:10 25° N 21:20:28 10° NE visible
23 Jul - 23:12:24 10° NW 23:20:32 34° NNE 23:28:40 10° E visible
24 Jul - 01:16:55 10° NW 01:26:08 88° NE 01:35:30 10° SE visible
24 Jul - 03:23:18 10° WNW 03:30:02 23° SW 03:36:55 10° S visible
24 Jul - 16:26:48 10° SSW 16:36:11 55° SE 16:45:14 10° ENE daylight
24 Jul - 18:31:49 10° WSW 18:41:00 50° NNW 18:49:55 10° NE daylight
24 Jul - 20:40:18 10° WNW 20:47:45 26° N 20:55:08 10° NE visible
24 Jul - 22:47:10 10° NW 22:55:11 32° NNE 23:03:11 10° E visible
25 Jul - 00:51:44 10° NW 01:00:56 82° NE 01:10:16 10° SE visible
25 Jul - 02:57:45 10° WNW 03:04:55 26° SW 03:12:14 10° S visible
25 Jul - 16:01:45 10° SSW 16:11:01 50° SE 16:19:58 10° ENE daylight
25 Jul - 18:06:24 10° WSW 18:15:43 53° NNW 18:24:45 10° NE daylight
25 Jul - 20:14:47 10° WNW 20:22:21 26° N 20:29:48 10° NE daylight
25 Jul - 22:21:54 10° NW 22:29:49 31° NNE 22:37:41 10° ENE visible
26 Jul - 00:26:32 10° NW 00:35:44 76° NE 00:45:01 10° SE visible
26 Jul - 02:32:16 10° WNW 02:39:49 29° SW 02:47:29 10° S visible
26 Jul - 15:36:45 10° SSW 15:45:52 45° SE 15:54:39 10° ENE daylight
26 Jul - 17:41:00 10° WSW 17:50:27 57° NW 17:59:35 10° NE daylight
26 Jul - 19:49:16 10° WNW 19:56:57 27° N 20:04:29 10° NE daylight
26 Jul - 21:56:38 10° NW 22:04:27 29° NNE 22:12:12 10° ENE visible
27 Jul - 00:01:21 10° NW 00:10:31 70° NE 00:19:44 10° ESE visible
27 Jul - 02:06:51 10° WNW 02:14:41 33° SW 02:22:40 10° S visible
27 Jul - 15:11:47 10° SSW 15:20:42 41° SE 15:29:20 10° ENE daylight
27 Jul - 17:15:37 10° WSW 17:25:11 62° NW 17:34:25 10° NE daylight
27 Jul - 19:23:44 10° WNW 19:31:33 28° NNW 19:39:13 10° NE daylight
27 Jul - 21:31:21 10° NW 21:39:04 28° NNE 21:46:42 10° ENE visible
27 Jul - 23:36:11 10° NW 23:45:18 65° NE 23:54:27 10° ESE visible
28 Jul - 01:41:28 10° WNW 01:49:34 36° SW 01:57:48 10° SSE visible
28 Jul - 14:46:50 10° SSW 14:55:33 37° SE 15:03:58 10° ENE daylight
28 Jul - 16:50:16 10° WSW 16:59:55 67° NW 17:09:15 10° NE daylight
28 Jul - 18:58:11 10° WNW 19:06:09 29° NNW 19:13:56 10° NE daylight
28 Jul - 21:06:02 10° NW 21:13:41 28° NNE 21:21:14 10° ENE visible
28 Jul - 23:10:59 10° NW 23:20:04 60° NE 23:29:07 10° ESE visible
